Search for airport 
image banner adimage banner adimage banner ad
image banner ad

DAUG - Ghardaia / Noumerat-Moufdi Zakaria

Located in Ghardaia, Algeria

ICAO - DAUG, IATA - GHA

Data provided by Airmate  

General information

Coordinates: N32°22'54" E3°47'58"
Elevation is 1512 feet MSL.
 
View others Airports in Ghardaïa Province

Operational data

Special qualification required
Current time UTC:
Current local time:
Weather
METAR: DAUG 261000Z 18011KT CAVOK 37/M01 Q1021
TAF: TAF DAUG 260500Z 2606/2706 VRB02KT CAVOK PROB30 TEMPO 2606/2608 3000 HZ BECMG 2608/2611 18010KT PROB30 TEMPO 2611/2616 18015G30KT 3000 DRSA
View NOTAMs / SUP AIP / TFR affecting this airport [VIEW]
Communications frequencies: [VIEW]

Runways:

RWY identifierQFULength (ft)Width (ft)SurfaceLDA (ft)
18183°7874148
367874148
12122°10171197ASP
30302°10171197

Airport contact information

Address: Ghardaia Algeria

Satellite view of DAUG